Theta_e
293 289 286 287 289 290 289 290 290 286 287 285 282 282 283 283 284 285 285 287 286 288 287 289 288 288 290 291 292 292 287 287 288 289 291 291 291 291 291 291 292 292 293 293 293 292 293 293 294 295 296 297 298 300 302 304 304 305 305 304 303 304 304 303 302 302 303 302 302 303 301 298 297 296 296 296 296 298 298 300 301 302 303 303 303 303
290 288 287 290 290 289 290 287 285 286 284 288 284 286 284 282 285 286 290 288 286 289 283 284 285 287 289 290 291 291 288 290 290 290 291 292 292 292 292 292 292 293 292 291 290 291 290 292 293 294 296 297 298 299 302 304 304 304 304 304 304 302 303 303 303 303 303 303 303 302 298 297 297 297 297 295 295 295 295 297 298 299 299 300 301 300
287 287 291 291 288 287 285 287 286 288 286 283 288 283 285 284 283 287 286 285 287 288 287 284 286 289 290 292 293 291 292 293 294 293 295 294 294 293 293 292 293 292 292 290 291 290 291 291 292 294 295 297 299 299 301 304 304 304 303 304 304 303 303 303 303 303 302 299 298 298 297 296 292 292 292 293 292 293 293 293 293 295 296 297 297 298
286 284 291 288 287 289 286 285 287 286 285 283 282 285 284 282 286 283 285 287 289 287 285 283 286 289 291 292 292 294 294 293 292 293 293 293 294 295 295 294 293 292 293 292 291 291 290 291 292 293 294 296 298 299 300 302 304 304 303 303 303 302 303 303 303 301 297 295 294 293 293 292 292 291 291 291 292 293 293 291 291 291 293 295 294 295
288 288 289 288 289 290 287 285 286 286 285 283 285 282 282 284 283 286 285 285 285 288 283 286 288 290 291 291 292 291 287 289 293 292 292 293 293 294 294 292 293 293 293 293 291 290 290 290 292 293 295 295 297 299 300 301 303 304 303 303 303 302 302 302 299 296 295 294 293 292 292 292 292 292 291 291 290 290 290 290 290 289 291 293 293 292
288 289 287 288 287 287 286 285 285 288 284 284 283 288 288 286 286 284 284 287 283 281 283 285 281 279 282 282 285 290 288 291 290 291 294 295 294 293 293 294 294 293 293 293 293 291 291 292 292 292 293 295 297 299 301 302 302 303 303 303 303 302 302 299 297 296 295 294 293 293 293 293 292 291 291 292 291 289 291 289 287 288 289 290 290 291
288 289 289 288 287 286 287 286 284 288 285 284 286 286 289 287 286 285 285 286 279 280 285 284 282 281 279 289 291 289 288 293 294 291 293 294 294 292 293 295 294 294 293 291 291 291 290 291 291 292 293 295 296 299 301 302 302 302 302 303 302 302 300 298 296 296 296 295 295 296 297 296 295 293 291 290 290 289 287 287 287 287 288 289 289 289
288 289 286 286 286 286 285 285 287 289 286 282 284 283 286 286 285 285 284 286 282 280 283 284 282 280 284 289 290 289 289 290 292 293 295 296 296 295 295 295 294 294 292 292 291 291 291 291 292 292 293 294 296 298 300 302 303 303 302 302 302 301 298 296 296 296 296 295 296 297 297 296 296 295 292 289 288 286 287 286 286 286 286 286 287 287
289 286 286 286 285 284 287 287 286 291 287 284 286 284 284 286 284 283 285 282 282 282 284 283 283 283 280 284 284 287 289 289 292 294 295 295 295 295 295 295 294 293 292 291 292 291 291 291 292 293 293 294 295 298 300 302 303 303 303 302 301 299 297 296 296 296 296 296 296 298 297 295 294 292 290 288 287 286 286 285 285 285 285 285 285 285
287 288 289 291 289 287 286 284 288 292 289 287 284 285 284 283 282 280 280 284 280 280 284 282 283 279 283 282 285 283 286 289 292 294 294 294 294 293 293 292 291 290 289 289 291 291 291 291 292 292 291 293 295 298 300 302 302 302 301 301 299 297 296 296 295 296 295 296 296 296 296 294 289 288 286 287 286 285 285 285 284 284 284 284 284 283
288 290 290 290 289 289 286 285 286 289 288 287 286 288 285 282 280 279 279 278 279 276 285 283 284 285 280 282 286 287 288 291 292 290 290 291 290 290 290 290 290 289 288 287 288 288 289 289 290 290 292 293 294 296 299 301 301 300 300 299 298 297 296 295 295 295 295 295 295 296 295 293 289 286 286 285 284 284 284 284 283 284 284 283 282 281
288 289 289 288 290 288 289 288 286 285 286 288 287 282 287 285 279 278 273 276 275 276 278 279 283 284 279 280 283 289 288 287 289 290 290 291 291 290 287 287 287 286 287 287 286 287 287 288 288 289 291 292 293 294 298 299 300 299 299 298 297 295 295 295 294 294 295 295 294 294 294 291 288 286 286 286 284 284 284 284 283 282 282 282 281 280
285 288 286 288 290 291 286 288 287 286 289 287 286 288 281 275 272 273 271 275 273 278 278 277 282 281 283 288 284 288 291 293 291 291 293 293 293 292 291 289 287 285 285 286 286 286 287 288 289 289 290 291 292 294 297 298 298 298 298 297 296 294 294 294 294 294 294 294 294 293 292 291 288 288 288 287 285 285 284 283 282 281 282 281 280 280
283 282 285 288 290 290 292 288 284 284 288 286 289 284 279 273 272 271 268 264 269 276 278 279 279 280 281 286 291 294 296 296 295 293 292 293 293 294 294 292 290 287 286 287 287 287 287 288 289 289 290 291 292 293 296 297 297 297 298 297 297 295 294 294 294 294 293 293 293 292 291 290 289 288 288 288 286 285 284 283 282 283 282 281 281 281
276 278 285 289 288 291 293 294 292 288 288 289 286 289 284 277 272 269 266 273 274 273 276 277 277 276 278 284 287 291 293 290 290 291 290 289 290 290 289 288 289 289 286 286 287 287 288 288 289 290 290 291 292 293 294 296 297 297 297 296 296 295 293 293 293 293 293 292 291 290 290 289 289 289 288 287 287 285 283 282 282 282 282 282 281 281
283 283 281 290 288 292 292 291 290 288 287 285 284 285 280 284 279 278 273 269 268 272 272 272 280 280 285 284 288 288 287 288 288 287 286 290 289 285 286 289 291 290 287 285 286 287 287 288 288 289 290 291 291 292 294 295 297 297 297 296 296 296 293 292 292 292 292 291 290 288 289 288 288 288 287 286 285 284 283 282 282 282 281 282 281 280
280 280 284 287 288 291 292 289 291 289 285 285 286 284 286 283 283 273 274 273 273 270 278 272 279 282 284 290 294 296 291 291 289 287 287 290 287 284 287 290 290 290 286 285 286 287 286 286 288 289 290 290 291 291 293 295 296 297 296 296 295 295 293 292 291 291 291 290 288 288 288 288 287 286 286 285 283 282 281 282 282 281 281 280 280 280
283 279 285 286 288 288 287 287 287 287 287 286 282 285 285 285 285 282 276 270 270 274 276 275 279 280 279 282 283 287 287 292 293 293 293 291 288 288 292 293 293 291 287 287 286 285 286 287 288 288 289 290 291 291 292 294 295 296 296 295 294 294 292 291 291 290 289 288 287 287 287 287 287 286 286 285 283 281 281 280 280 280 279 279 280 280
287 282 282 284 285 287 285 290 290 288 288 287 282 287 287 281 279 280 274 273 268 269 273 276 276 278 282 285 286 287 286 290 291 291 289 290 289 290 292 292 291 286 284 285 286 285 286 286 287 288 289 289 290 291 291 292 293 294 294 294 294 293 292 291 291 290 289 287 287 287 287 286 286 286 285 284 283 281 280 280 279 279 279 279 280 280
288 282 280 285 285 286 287 288 285 285 288 287 289 287 285 284 278 277 280 274 275 270 267 276 275 282 283 284 286 292 289 289 289 288 288 289 290 290 290 290 289 286 286 286 286 286 286 286 287 288 288 289 289 289 290 290 291 292 293 293 293 292 291 290 289 288 287 286 286 285 284 284 284 284 284 283 281 280 280 280 279 279 278 279 280 280
286 284 278 281 285 285 284 286 287 287 285 284 285 283 286 281 283 281 279 277 276 267 267 272 277 279 282 287 288 292 292 291 290 292 289 290 290 289 289 289 288 286 286 286 286 286 286 286 286 286 287 288 287 287 288 289 290 291 291 291 292 292 290 290 289 288 288 286 285 284 283 283 282 282 282 281 280 280 280 279 279 279 279 279 279 279
284 282 281 281 281 282 284 285 286 289 292 290 290 287 289 284 280 277 279 280 273 276 277 268 278 285 283 285 292 291 293 293 292 290 291 289 289 289 288 287 286 286 286 285 286 286 286 285 285 285 285 285 286 287 287 288 288 289 289 290 290 290 289 289 288 288 287 286 285 284 283 282 282 281 280 280 279 279 279 279 279 279 279 279 279 279
291 283 282 279 283 286 285 287 284 284 286 286 286 286 288 287 287 279 276 277 273 279 276 274 269 284 287 288 290 291 289 289 289 289 290 290 289 288 288 286 285 286 286 286 285 286 285 285 285 286 286 286 287 287 287 287 288 288 288 288 289 289 289 289 288 288 287 286 285 284 283 282 281 280 279 279 279 279 278 278 278 278 279 279 279 279
293 282 281 281 281 280 283 283 283 283 287 287 286 282 285 287 286 284 281 280 282 275 277 274 273 283 286 283 282 282 281 282 283 285 292 291 289 288 287 285 285 284 284 284 283 283 284 284 284 284 285 285 286 286 286 287 287 287 288 288 288 288 288 288 288 287 286 285 285 284 282 282 281 279 279 279 279 279 278 278 278 278 279 279 278 278
286 283 286 279 275 278 281 284 284 286 286 283 284 284 286 288 286 280 278 275 277 280 283 280 277 284 287 283 282 282 286 285 285 285 284 288 290 289 287 287 285 284 283 283 283 283 282 283 284 285 285 286 286 286 286 287 287 287 287 287 287 287 287 287 287 287 286 285 284 283 282 281 280 280 279 279 278 278 278 278 278 278 278 278 277 277
290 288 287 281 279 277 276 277 280 283 284 283 280 283 287 288 286 283 283 279 280 281 282 281 283 287 287 283 288 286 286 287 286 284 281 284 287 288 289 288 286 285 283 283 282 282 284 284 285 285 285 285 286 286 286 286 287 287 287 287 287 287 285 286 285 286 286 285 284 283 282 281 280 280 279 278 278 278 278 278 278 278 278 278 278 277
287 289 290 288 285 283 285 286 285 285 282 282 284 286 286 287 288 288 286 280 282 283 281 286 287 288 286 286 287 288 286 288 290 288 289 288 288 287 285 286 286 286 285 284 284 284 283 284 284 285 285 285 285 286 286 286 287 287 287 287 286 286 286 285 285 285 286 285 284 283 282 282 281 280 279 279 279 279 278 278 278 278 278 278 278 277
285 287 289 289 289 289 290 289 285 290 286 287 286 285 287 286 287 287 286 284 288 280 282 287 288 287 289 287 286 285 286 285 285 286 286 286 288 289 290 288 290 285 284 283 283 284 284 285 285 285 285 285 285 285 286 286 287 287 287 287 286 286 285 285 284 284 285 285 284 284 283 282 282 281 280 279 279 279 279 279 279 279 279 278 278 278
287 287 290 290 289 290 291 290 287 288 288 288 288 287 286 287 286 286 287 289 288 285 284 289 286 287 290 292 293 291 290 292 293 292 292 291 288 288 289 290 291 292 289 284 285 285 285 285 285 285 285 285 285 285 285 285 286 286 286 287 286 285 285 285 284 284 284 284 285 284 284 282 282 281 280 280 279 279 279 279 279 279 278 278 278 279
290 288 289 291 289 290 290 290 286 287 286 285 287 288 288 287 287 288 289 290 289 288 290 291 287 288 293 290 293 294 293 293 292 291 289 290 293 294 292 292 292 292 292 290 288 287 287 286 285 285 285 284 285 285 285 285 285 286 286 286 286 285 285 284 284 284 284 284 284 285 284 283 282 281 280 279 279 279 279 279 279 279 279 279 279 279
291 287 292 288 287 288 290 291 288 286 286 285 285 287 288 288 288 289 289 290 289 289 290 290 289 288 294 290 290 291 292 291 291 291 294 296 295 294 294 294 293 293 293 292 291 289 288 286 285 285 285 285 285 285 285 286 286 286 286 286 285 285 284 284 284 284 284 284 284 284 283 283 282 281 280 280 280 279 279 279 279 279 279 279 279 278
290 286 287 288 286 286 289 289 288 284 282 284 283 284 285 286 285 287 287 289 287 287 288 288 287 288 292 293 294 291 288 291 292 293 294 294 293 292 292 292 292 292 292 293 292 291 288 286 286 285 286 286 286 285 285 285 285 285 285 286 285 285 284 284 284 284 284 283 283 283 283 283 282 281 281 280 280 280 279 279 279 279 279 279 278 278
287 288 287 287 285 285 289 288 283 282 284 283 284 286 288 288 289 289 290 290 290 291 288 286 287 294 293 288 290 288 289 291 292 293 293 293 293 292 291 291 291 292 292 293 292 292 290 289 288 287 287 287 286 286 286 286 285 285 285 285 285 284 283 283 283 283 283 282 282 282 282 282 282 282 281 281 281 280 280 279 279 279 279 278 279 278
287 288 287 288 284 285 288 282 283 283 278 281 293 295 292 289 288 286 287 289 290 291 290 293 294 295 295 290 291 291 289 292 294 296 296 294 292 289 289 290 291 293 293 292 291 291 291 290 289 288 288 288 287 287 286 285 285 285 285 285 284 283 283 283 282 283 282 281 281 281 281 282 282 282 281 281 281 280 279 279 279 279 279 279 279 278
288 288 288 288 285 285 285 284 282 277 280 292 294 294 294 293 291 290 291 291 291 292 292 291 292 293 295 292 292 293 293 294 294 293 290 288 289 291 293 294 292 290 290 291 290 290 290 290 289 288 287 287 285 284 284 284 284 284 284 284 283 283 282 282 282 282 282 281 281 280 281 282 282 282 281 281 280 280 279 279 279 279 279 279 279 278
289 288 288 287 287 286 283 284 277 280 288 289 289 290 288 292 292 290 288 291 292 291 292 291 293 295 296 295 294 293 291 290 288 288 287 286 289 293 293 292 292 290 291 291 290 290 289 289 289 289 288 284 284 284 284 284 284 283 283 283 283 282 282 282 281 281 281 281 280 280 281 282 282 282 281 280 280 279 279 279 279 279 279 279 279 278
292 290 289 285 288 282 285 284 284 289 287 289 289 288 289 290 288 288 285 288 292 293 292 292 293 295 295 294 294 293 289 288 289 293 286 290 292 290 292 293 292 292 289 288 287 288 287 287 287 287 284 283 284 283 283 283 283 283 282 282 281 281 281 281 281 281 281 280 280 281 281 282 282 281 281 280 280 279 279 279 279 279 279 278 279 278
294 289 289 286 284 287 284 283 283 283 280 286 292 288 292 292 293 293 291 289 294 293 294 293 293 293 293 293 293 292 289 290 290 293 288 291 288 286 285 285 284 284 284 285 285 284 283 283 284 284 283 282 282 282 282 282 282 282 281 281 280 280 280 280 280 280 280 280 280 281 281 281 281 281 280 280 279 279 279 279 278 277 277 278 278 278
293 294 291 288 285 285 283 281 282 280 284 290 291 289 290 291 293 290 289 287 295 293 293 294 292 293 292 292 293 288 287 287 289 293 288 287 282 281 281 282 282 281 281 281 282 283 282 281 281 281 282 282 281 281 281 282 282 281 280 280 279 280 279 280 280 280 280 280 280 280 280 280 280 280 280 279 279 278 278 278 278 278 278 279 279 278
288 289 288 285 284 286 284 282 281 286 286 290 287 285 289 291 294 291 282 284 295 291 291 291 292 293 293 293 291 288 289 287 290 293 287 283 281 281 281 281 281 281 281 280 280 280 280 281 281 281 281 281 280 280 281 281 281 280 280 279 279 279 279 280 280 279 280 279 280 280 280 281 281 280 280 280 279 279 279 279 279 278 278 278 278 278
286 286 287 283 285 285 286 284 285 286 289 289 284 283 285 292 293 285 281 290 290 292 290 292 293 294 294 292 289 289 290 294 288 283 280 280 281 281 280 280 280 280 280 280 281 282 281 281 281 280 279 279 280 280 281 281 281 280 279 279 279 279 279 279 279 280 280 279 279 280 280 280 281 281 280 280 279 280 279 279 279 279 278 278 277 277
286 286 286 287 285 284 285 283 284 287 288 287 282 286 289 290 283 284 291 284 290 286 288 292 292 294 292 291 289 292 290 278 279 280 279 279 281 280 280 280 280 280 280 280 280 281 281 280 280 279 279 279 280 280 281 281 280 279 279 279 278 277 279 280 280 280 280 280 280 280 280 280 281 281 281 281 280 279 279 279 279 279 278 278 277 276
285 285 282 284 286 286 285 283 282 279 288 289 288 286 286 288 290 290 284 282 282 286 288 287 289 288 287 289 288 287 281 279 280 280 279 279 279 280 279 280 280 280 280 281 281 280 281 280 279 279 279 279 279 280 281 281 279 279 279 279 278 279 280 281 281 281 281 280 280 280 280 281 281 281 281 280 280 280 279 278 278 278 277 277 276 276
290 286 285 286 289 282 283 281 282 289 288 291 293 289 289 292 287 285 289 287 282 282 286 287 283 283 283 287 285 282 280 279 279 279 279 279 278 279 278 278 279 279 279 279 280 280 280 280 279 279 278 278 279 279 281 281 280 279 279 278 279 279 280 280 280 281 281 281 280 280 280 280 280 280 280 280 280 279 278 277 277 276 276 276 275 275
290 288 290 287 290 288 286 289 288 284 289 290 288 288 293 289 283 284 285 287 286 283 281 285 286 281 282 283 282 283 279 279 280 280 281 280 279 279 280 279 279 280 280 280 279 278 279 280 279 279 278 278 278 278 279 279 280 280 280 280 281 281 281 281 281 281 281 280 280 280 280 279 279 279 279 279 279 278 277 276 276 275 274 275 275 274
285 285 285 288 288 286 286 286 285 282 284 286 283 283 283 283 283 284 286 285 285 284 283 285 284 282 281 280 282 278 281 280 280 279 279 279 279 278 277 277 277 277 277 277 278 278 279 279 279 279 279 278 278 279 278 279 281 281 279 279 280 280 280 281 281 281 280 280 279 279 278 278 278 278 278 278 279 278 278 277 276 276 274 274 274 274
284 284 286 287 287 289 286 286 284 285 286 286 284 283 283 283 283 283 284 286 285 283 283 281 284 283 282 280 283 282 279 280 280 279 279 278 278 278 278 278 277 277 278 278 278 279 279 279 279 278 278 277 275 276 276 277 277 278 278 278 279 280 280 280 280 279 279 278 278 277 278 278 277 277 276 277 277 277 277 276 276 275 274 273 273 272
284 285 285 284 285 287 287 284 284 283 283 285 284 284 284 284 283 283 282 281 283 282 282 281 282 279 279 280 279 280 279 280 280 280 279 280 280 279 278 278 277 277 276 276 277 278 278 279 278 277 276 275 274 273 272 272 273 274 276 277 278 279 280 279 279 278 277 276 276 275 276 276 272 274 275 274 275 275 274 273 274 274 274 273 272 272
286 287 282 286 286 285 285 284 282 284 286 286 285 284 284 285 284 282 282 282 282 283 282 282 281 280 280 281 279 280 280 280 281 281 280 279 279 279 279 279 278 277 277 278 276 277 279 278 277 276 275 274 272 271 270 269 268 268 270 272 273 278 278 276 275 274 274 273 274 273 272 273 273 273 273 271 267 266 267 270 270 271 267 266 268 271
285 283 285 286 282 285 286 287 284 285 285 286 287 286 285 285 284 282 281 281 282 282 283 283 280 280 280 280 280 281 282 280 280 280 280 280 280 280 279 279 279 279 278 278 279 279 279 278 277 275 274 273 272 270 268 267 265 265 264 265 267 272 273 272 272 271 269 269 270 269 270 269 268 268 269 269 268 269 270 272 275 271 268 266 273 276
286 286 286 283 285 285 287 287 288 289 286 286 289 288 287 285 284 282 282 282 282 283 283 283 281 279 279 279 279 281 281 281 280 281 281 280 280 280 280 279 279 278 277 278 278 278 277 276 275 273 271 269 268 266 265 264 262 262 262 263 264 270 272 272 271 270 269 269 268 268 268 267 266 265 266 267 268 268 268 267 271 277 277 276 276 277
Wind_Speed
0 3 4 7 9 8 5 8 4 4 5 5 4 3 2 3 6 4 4 3 1 1 7 9 8 9 12 10 10 9 1 5 9 12 12 10 10 10 11 12 13 12 18 2 5 6 8 8 7 7 7 7 6 7 7 7 7 7 7 7 7 6 7 6 7 6 7 7 5 2 4 7 3 3 3 4 2 4 4 5 7 5 4 4 7 5
3 1 8 11 7 7 5 4 6 5 4 1 2 1 3 2 6 4 0 2 2 3 3 0 2 10 13 12 11 7 2 12 13 13 13 14 13 12 13 14 13 16 5 3 4 4 4 6 7 6 7 7 10 9 8 10 9 8 7 8 7 6 7 6 8 7 6 3 4 6 5 5 4 4 4 4 2 3 5 5 6 5 3 3 6 5
1 7 11 6 4 4 4 5 3 4 2 2 2 2 2 7 4 9 3 2 2 2 9 3 6 12 13 13 11 9 12 11 10 11 14 12 13 13 12 13 14 8 12 6 8 5 6 7 8 8 8 9 9 9 10 8 9 9 8 8 8 7 8 7 7 6 5 3 2 4 6 6 5 3 3 4 3 2 5 6 5 4 3 3 5 4
1 7 14 4 6 6 3 3 4 3 2 3 2 1 7 3 1 6 1 3 1 1 3 1 7 12 12 10 15 16 13 9 7 10 12 12 15 16 15 11 10 12 13 12 10 10 7 8 7 7 9 10 9 9 9 10 11 9 8 8 9 8 7 8 6 6 6 7 7 8 7 6 3 4 5 4 4 4 6 7 5 4 2 4 4 4
10 3 1 4 6 7 4 3 5 5 5 2 5 4 3 3 5 6 5 3 1 1 2 4 7 10 8 11 9 5 3 4 11 7 11 15 13 14 8 7 10 13 12 12 7 7 8 10 13 15 11 7 10 10 11 11 11 9 10 9 9 8 8 7 7 7 6 8 8 6 7 7 8 6 5 5 5 4 5 5 4 3 2 4 4 4
10 5 4 5 1 3 5 3 6 8 4 2 5 10 9 6 6 3 3 4 7 4 3 3 5 5 5 6 10 10 6 8 5 5 14 14 10 7 10 15 12 10 8 10 11 12 13 14 10 8 9 12 11 12 11 10 10 8 9 9 9 8 7 7 9 10 9 7 8 7 8 7 4 5 5 6 8 6 6 5 3 3 2 3 4 4
6 1 3 5 5 4 4 5 4 6 6 1 6 9 11 6 2 1 0 3 3 3 1 1 2 10 3 9 9 6 7 13 10 7 13 11 10 6 10 11 10 10 9 7 7 6 9 11 10 11 11 13 12 12 8 8 8 8 9 9 9 9 7 7 9 9 8 10 8 11 10 10 10 10 4 2 3 6 5 5 5 4 2 2 5 5
2 0 4 4 5 4 4 4 5 10 7 3 2 3 4 3 5 4 3 5 5 2 4 1 2 3 12 11 3 4 5 10 12 15 15 13 11 10 10 10 9 8 7 7 9 9 10 10 13 16 15 12 11 7 7 7 8 10 10 10 10 8 8 7 8 9 9 10 9 7 6 6 8 10 10 8 6 5 7 7 6 4 2 3 3 5
6 5 5 4 2 4 7 6 4 9 8 3 0 6 4 5 4 3 3 2 1 3 10 2 1 1 7 9 3 1 5 6 13 15 14 12 9 10 10 10 8 6 7 8 8 10 11 12 13 11 10 9 7 8 10 10 10 8 8 9 9 8 8 8 10 10 9 8 9 9 7 6 1 3 5 6 5 7 7 7 5 5 3 3 4 3
1 3 7 6 6 7 4 1 6 11 4 1 5 8 7 7 6 4 4 3 1 1 12 5 5 3 11 4 3 3 1 8 13 14 12 11 9 8 8 6 5 4 4 5 8 7 8 9 8 7 5 7 9 8 7 7 8 9 8 10 11 10 9 9 10 10 10 9 8 8 9 10 7 7 6 5 7 7 7 7 5 5 4 3 4 3
0 4 3 3 7 4 5 3 1 0 2 8 3 7 6 8 3 3 6 2 3 4 15 5 10 6 9 3 8 4 8 9 9 6 6 7 7 8 5 6 5 4 4 4 5 5 5 4 4 5 8 7 6 6 8 9 10 9 10 11 12 11 9 10 11 11 11 8 8 9 10 10 12 11 10 9 6 6 6 6 6 6 5 4 5 5
1 2 1 2 3 4 4 4 4 2 4 4 2 3 3 2 6 3 4 4 2 9 2 1 7 7 8 8 8 9 5 5 7 7 7 8 7 6 3 3 3 3 4 3 4 5 3 3 4 5 7 8 8 7 9 9 10 10 10 10 12 10 11 11 10 10 11 9 8 6 9 11 11 13 10 10 12 9 9 8 7 4 4 4 3 4
4 6 2 4 4 9 3 8 3 3 0 3 5 6 6 4 5 3 2 2 5 9 0 3 3 2 13 14 3 8 12 12 7 10 11 10 10 8 7 5 4 3 3 4 4 4 4 6 7 8 7 8 10 11 11 11 10 10 11 12 13 12 11 12 11 11 11 10 10 9 8 7 9 11 12 11 11 10 10 8 7 7 7 5 6 6
7 2 2 3 2 4 8 9 3 1 4 4 8 7 5 1 1 6 4 2 6 7 3 1 1 5 3 10 14 21 22 14 11 10 10 10 10 10 9 6 6 5 4 5 5 5 6 7 7 8 9 9 9 10 11 11 11 10 10 11 13 12 10 10 10 11 11 11 10 9 9 9 9 9 10 10 11 10 8 8 10 10 9 9 8 8
5 6 8 8 5 6 10 12 13 7 11 10 2 10 9 8 7 5 5 5 7 4 3 4 1 8 5 6 1 11 11 7 7 8 6 6 7 7 7 9 11 9 6 5 6 6 7 7 8 9 9 9 10 10 11 10 11 10 11 11 12 11 11 11 12 10 11 10 9 7 7 8 9 9 9 9 9 11 10 8 9 9 8 9 8 9
13 8 5 7 2 10 12 2 6 6 3 2 2 6 3 11 6 4 4 3 1 3 5 2 7 5 7 3 6 6 8 10 7 7 5 11 6 3 6 9 11 8 4 4 5 6 6 7 7 7 8 9 9 11 10 11 11 12 12 12 12 12 12 11 11 10 10 9 8 8 9 9 9 7 6 6 6 7 9 12 11 10 9 8 8 6
2 6 1 3 4 8 6 3 2 4 8 5 6 8 6 1 5 5 2 2 1 3 11 3 8 7 8 9 13 14 8 11 5 5 5 9 4 2 7 9 9 8 4 4 7 7 6 5 7 8 8 8 9 10 13 13 13 14 13 13 13 12 11 12 11 11 10 9 9 9 9 9 9 9 10 9 10 10 8 8 8 9 9 6 7 7
8 6 1 3 5 1 1 0 3 4 4 9 5 8 2 2 3 4 5 2 4 4 8 2 9 5 2 11 3 1 6 14 12 11 11 9 3 6 10 9 10 6 5 6 6 5 5 6 7 7 7 9 10 11 11 12 11 11 12 13 14 13 14 12 12 12 10 10 10 9 10 10 10 10 10 9 10 9 8 7 6 6 8 8 7 7
5 7 1 1 0 4 2 1 1 2 2 6 5 4 6 4 2 2 4 4 1 4 7 7 2 7 9 10 0 1 6 9 12 11 7 9 6 9 10 10 8 4 3 4 6 5 6 7 8 9 9 8 9 9 10 9 9 8 9 10 12 14 13 13 11 9 7 8 7 8 10 11 10 8 8 8 8 9 10 10 8 8 8 7 7 8
1 5 3 1 2 1 1 4 10 5 1 1 2 4 1 2 2 5 7 3 5 5 2 9 2 13 8 8 9 12 10 9 7 7 7 7 7 8 8 8 5 4 5 5 4 5 6 6 7 8 9 10 10 9 9 9 8 10 10 10 10 7 8 9 11 10 10 9 8 8 7 8 9 10 11 9 9 9 9 10 10 9 8 9 8 7
2 2 7 1 3 2 3 6 12 12 10 2 2 4 1 0 2 4 1 4 4 4 4 3 10 6 5 7 10 12 11 11 11 11 6 7 8 8 7 7 5 4 4 4 5 6 7 6 6 6 6 6 5 5 6 8 11 11 8 9 10 12 12 13 12 11 10 9 9 9 10 9 8 9 8 9 9 10 9 8 8 8 8 8 8 9
2 3 8 2 1 5 8 2 2 8 14 14 16 15 17 11 5 4 8 2 1 3 5 4 13 11 5 3 10 9 11 13 11 7 7 7 7 7 7 6 5 4 4 5 5 5 5 5 5 5 5 5 6 7 9 8 8 9 10 9 9 9 10 11 11 11 10 9 9 11 10 10 7 8 7 9 9 9 8 8 8 8 8 10 9 9
7 3 7 6 10 11 2 0 1 2 1 1 1 7 5 7 4 6 7 5 1 4 4 4 1 16 3 6 9 8 3 5 3 6 6 6 7 6 7 5 4 4 4 5 5 5 5 5 6 7 8 9 10 9 9 8 9 10 10 9 9 10 10 10 10 10 10 10 10 10 9 9 9 9 8 9 9 9 9 8 7 6 9 9 8 6
4 3 3 3 1 3 3 2 2 1 1 3 5 2 5 11 9 6 2 5 8 2 2 3 2 14 1 1 4 5 3 6 0 5 10 7 6 7 7 4 5 5 5 4 3 4 4 4 4 5 7 9 9 9 10 10 9 9 9 10 9 11 10 9 9 10 10 9 9 9 9 10 9 10 9 10 9 10 8 8 6 6 7 7 7 8
5 4 7 2 1 1 3 2 2 1 1 5 5 4 5 3 4 2 4 1 1 9 11 8 12 14 2 2 2 1 2 5 5 5 4 5 7 7 6 5 5 4 2 2 4 4 3 4 7 9 9 9 9 8 9 10 10 10 11 10 11 10 9 9 8 10 11 11 11 10 10 10 10 11 11 10 9 10 8 8 7 6 7 7 7 6
9 8 11 9 13 11 9 9 12 12 12 4 2 5 9 12 11 5 8 4 7 6 9 8 12 10 1 2 1 1 1 4 5 4 3 6 6 7 6 8 4 2 2 3 4 3 7 9 8 7 8 8 9 10 9 10 10 11 11 12 10 10 9 9 8 10 11 11 11 11 12 12 11 12 12 11 10 11 10 9 8 8 6 7 8 7
4 6 13 14 15 16 14 10 0 9 6 7 10 15 10 10 10 9 2 3 13 10 6 15 18 15 4 2 4 3 2 6 5 4 4 5 9 10 7 9 7 4 4 5 6 6 5 6 10 10 9 9 8 9 9 10 11 11 11 11 11 10 10 10 10 11 11 11 12 12 13 13 13 12 12 11 11 10 10 10 9 9 9 8 8 8
2 5 12 16 19 18 16 15 9 14 12 16 16 11 13 11 12 14 14 17 14 2 16 18 14 13 21 6 6 7 6 5 5 6 7 6 10 9 8 6 3 3 4 3 4 7 10 11 8 9 10 9 9 9 9 10 11 12 12 13 11 10 10 9 10 11 11 11 12 13 13 12 11 11 11 10 10 11 11 10 10 10 8 8 9 9
5 7 10 11 15 16 17 15 9 8 13 15 19 18 17 17 13 17 20 24 13 13 21 21 9 18 23 16 14 10 8 9 11 10 12 8 3 5 7 6 6 9 7 5 9 8 10 11 10 9 8 10 9 11 12 10 11 10 9 9 9 10 11 10 10 11 12 12 13 13 11 10 10 9 10 10 10 10 10 10 9 9 8 8 8 7
3 7 5 11 14 15 15 16 8 13 7 6 13 18 18 19 20 23 26 27 24 18 18 22 10 18 21 7 13 13 9 9 5 6 2 2 7 9 8 8 9 10 10 10 10 11 10 11 7 7 8 9 12 12 12 12 12 12 12 12 10 11 9 10 11 12 11 12 12 9 9 10 9 10 9 9 10 9 9 9 9 9 9 9 8 8
7 6 11 4 7 11 17 17 10 11 10 10 7 10 15 18 23 27 27 24 17 17 21 22 20 19 18 7 6 6 7 5 5 6 11 12 10 10 12 12 10 11 11 11 9 10 9 7 7 7 10 12 13 15 14 13 11 10 11 10 10 11 10 10 11 11 11 11 8 8 8 9 9 9 9 9 8 7 9 9 9 9 9 9 8 8
4 4 2 2 8 11 15 18 14 3 3 7 7 8 13 19 22 21 18 15 12 19 23 19 17 22 13 12 8 8 5 8 10 12 12 11 10 10 11 11 10 11 11 12 12 9 7 8 8 10 13 14 13 12 12 12 11 9 12 10 10 9 8 10 11 11 11 9 8 8 10 9 9 10 9 9 8 8 8 8 8 9 8 8 8 7
3 4 6 4 11 12 18 8 2 4 1 7 13 19 24 23 20 12 12 15 21 22 17 16 23 24 11 4 5 5 6 9 11 11 11 12 11 8 8 9 11 11 12 13 12 10 9 9 11 11 12 10 11 12 14 10 9 13 11 10 9 8 10 11 10 10 10 8 8 8 8 9 10 10 9 9 9 8 9 9 9 9 9 9 8 7
4 8 8 5 9 9 14 3 4 5 13 16 18 23 18 20 16 12 16 22 20 14 15 18 20 19 12 8 9 9 10 11 14 14 10 8 6 6 8 8 11 13 10 9 8 9 10 7 8 9 10 10 9 8 6 9 11 8 7 9 8 11 11 11 10 10 9 8 8 9 9 9 10 10 10 9 9 9 9 9 10 9 8 8 8 9
10 9 10 6 4 11 3 7 4 13 15 18 11 3 10 13 13 23 26 20 17 17 16 17 19 21 19 7 10 11 10 11 11 9 5 2 4 6 10 12 9 6 9 9 9 10 9 10 8 7 6 6 4 4 7 7 8 7 8 9 10 10 10 10 10 9 9 9 8 9 9 11 11 11 10 9 9 10 10 11 9 10 9 9 10 11
10 12 8 6 5 1 3 7 10 14 6 5 5 6 1 10 18 15 16 18 16 16 18 21 26 26 22 17 12 8 7 7 5 6 5 5 8 11 9 9 7 6 9 8 8 8 6 7 8 8 8 4 6 6 8 9 8 9 8 8 9 9 9 9 9 9 8 9 9 10 10 11 10 9 9 9 8 9 9 9 10 10 7 7 6 5
12 8 7 6 7 9 8 13 17 5 11 9 6 7 13 13 10 16 15 18 16 15 18 22 27 25 20 14 13 10 2 4 8 11 6 8 13 8 8 10 7 8 5 5 3 6 5 6 6 7 4 4 5 6 6 6 8 8 8 8 7 8 8 9 9 9 8 9 9 10 10 10 10 9 8 9 9 9 8 8 8 7 6 7 7 7
12 13 7 11 6 11 11 11 6 8 13 16 24 2 3 5 8 11 12 17 11 16 19 19 22 21 16 15 14 9 2 6 14 15 6 11 2 1 4 3 4 4 4 6 5 4 4 3 1 0 3 4 4 5 6 7 9 9 8 8 7 8 7 8 8 7 8 8 8 9 9 9 9 10 9 9 10 9 7 5 4 6 6 7 6 6
12 13 10 14 7 7 10 10 10 10 14 13 16 4 6 9 14 7 8 15 17 15 19 20 18 15 15 15 19 3 2 9 15 14 3 4 0 1 2 3 3 3 3 3 4 5 2 1 2 4 5 6 6 5 7 8 10 9 8 7 7 7 8 8 7 8 8 7 6 6 7 8 9 9 9 9 9 9 9 9 8 6 6 6 6 6
14 11 7 12 13 11 12 12 12 8 11 12 5 4 6 9 13 11 10 11 21 5 11 10 14 18 18 18 11 6 10 9 15 11 4 2 0 0 0 2 3 4 3 3 3 1 2 2 5 5 5 6 5 6 8 8 9 8 8 7 7 7 8 7 6 5 5 6 7 7 7 7 9 8 9 8 6 6 7 6 7 7 7 5 5 5
12 9 12 17 14 14 16 11 5 7 6 7 4 2 4 11 15 12 17 17 3 10 10 15 19 20 18 13 8 9 13 13 4 3 2 0 2 1 1 0 1 1 1 2 2 3 5 5 5 5 4 5 7 7 7 8 9 8 7 8 7 7 6 5 6 7 7 7 7 7 7 6 8 9 7 8 8 7 7 6 7 7 6 6 5 5
13 9 7 10 15 14 13 15 13 7 5 5 0 12 10 8 7 16 8 0 9 5 10 16 16 17 12 10 9 12 6 3 5 1 3 2 3 1 0 0 2 3 2 2 3 5 6 6 7 7 6 4 7 7 8 8 9 8 8 7 6 5 6 7 7 8 8 9 8 8 8 8 6 7 8 7 8 8 6 5 6 7 7 6 6 7
14 11 11 13 9 9 7 11 8 12 7 12 14 3 2 10 10 6 2 1 0 5 9 6 9 6 6 8 8 5 5 4 4 4 3 3 4 3 3 3 4 4 4 4 4 3 7 8 7 6 6 5 5 6 6 9 9 7 7 8 6 6 7 8 8 8 9 8 8 8 8 8 9 8 7 7 8 8 8 6 6 6 6 7 6 7
13 12 6 9 10 11 14 13 10 11 3 13 17 12 11 13 2 4 8 4 1 3 7 7 5 5 6 6 8 5 3 4 2 5 4 3 3 3 3 3 3 3 4 3 4 5 8 9 7 7 5 4 4 5 6 9 9 7 7 6 5 7 7 7 8 8 8 8 8 8 8 8 8 7 7 8 7 7 7 7 7 6 6 6 6 6
11 15 11 15 12 14 11 11 2 1 12 10 4 5 10 7 3 5 1 4 7 5 3 4 8 5 6 6 5 7 4 4 4 6 6 6 4 5 5 4 4 5 5 6 5 4 5 10 9 8 7 5 5 4 4 5 9 8 8 5 6 7 8 8 8 8 8 8 8 8 7 6 6 6 6 6 8 8 7 6 7 6 4 6 6 6
5 3 2 1 6 1 2 0 1 1 3 5 1 1 2 5 2 3 6 5 3 3 7 6 6 7 6 5 8 2 5 6 6 4 3 4 4 3 3 3 3 4 4 5 5 5 7 8 8 9 9 7 5 5 4 4 5 8 5 4 5 5 7 8 8 8 8 7 6 6 7 7 5 5 5 6 5 6 6 8 7 6 6 5 5 5
3 1 2 4 1 8 10 6 5 4 3 5 3 0 1 0 2 2 2 1 3 6 5 1 5 8 8 7 7 7 5 6 6 4 4 4 4 4 4 4 4 4 4 5 4 7 8 9 10 9 8 8 5 6 6 6 7 5 5 5 5 6 6 7 7 6 6 6 6 5 6 7 6 6 5 5 4 4 5 5 5 5 5 5 5 4
5 4 1 3 4 7 1 0 3 3 4 3 3 3 3 2 0 1 1 2 4 4 2 2 4 5 5 5 4 7 7 6 8 7 6 5 5 5 4 5 5 5 4 4 4 5 7 8 10 9 9 8 6 6 7 7 7 6 6 5 4 6 7 7 7 7 7 7 6 6 6 6 7 7 5 4 4 5 5 4 5 5 6 6 6 6
2 3 4 3 5 2 2 2 2 4 3 4 4 4 2 1 3 3 2 3 4 6 6 4 2 6 6 5 5 6 9 6 6 8 8 6 5 5 5 5 5 5 6 7 5 5 8 8 10 9 10 8 6 7 8 8 7 6 6 4 3 6 8 8 7 7 7 6 6 6 5 6 6 6 6 6 6 5 3 5 5 6 3 1 3 6
2 4 2 1 0 3 7 6 7 1 4 5 5 4 3 2 3 3 2 2 3 7 6 8 4 3 3 4 7 8 9 8 6 7 8 7 7 6 6 6 6 6 5 5 6 8 9 8 11 11 10 7 6 6 8 8 6 5 6 4 2 6 9 8 8 8 6 6 6 6 6 6 6 6 6 7 7 7 6 6 7 4 5 1 1 3
8 6 7 6 5 7 4 4 9 7 2 5 9 10 10 8 7 7 7 7 5 4 7 9 8 3 3 2 3 6 7 10 8 6 7 6 6 6 7 8 8 7 7 7 10 9 10 9 10 12 12 8 6 8 7 7 5 5 5 4 3 5 8 9 8 7 6 6 6 6 6 6 6 5 6 6 7 7 7 7 7 9 8 7 6 5
Wind_Direction
246 133 182 205 216 204 211 196 181 159 131 102 92 114 195 204 276 280 269 263 264 332 233 231 242 257 270 262 265 276 153 240 262 266 259 255 251 245 244 240 239 239 240 260 198 197 195 189 185 182 178 182 183 185 183 176 183 186 180 166 173 162 150 152 144 141 150 136 121 91 97 125 107 79 72 77 62 103 85 70 87 86 87 102 111 118
61 171 248 227 213 191 198 113 104 85 49 133 111 172 275 166 254 236 143 6 312 171 296 305 293 269 263 270 264 268 235 257 242 249 254 253 245 243 240 244 240 240 270 243 234 218 189 190 184 182 187 177 182 197 184 184 184 184 178 181 170 165 163 167 157 156 165 185 173 153 154 132 131 139 126 104 21 66 81 71 86 82 77 104 115 125
56 201 242 223 134 111 81 128 113 139 120 47 195 183 334 270 245 282 273 325 276 114 263 343 294 273 275 272 270 251 238 243 236 228 244 243 250 245 242 242 247 254 252 228 233 199 202 194 193 189 194 198 194 178 188 184 175 184 184 186 170 174 167 168 162 164 165 132 91 123 135 135 110 40 57 77 69 54 96 77 56 72 79 100 102 120
26 277 254 152 139 116 54 101 109 78 69 129 94 104 230 242 31 296 312 6 23 176 283 320 316 283 274 260 258 254 241 252 257 252 254 242 247 248 240 234 240 243 248 240 221 213 199 199 197 200 204 200 188 184 185 186 184 183 188 184 175 174 168 165 165 137 90 91 91 81 101 89 71 129 104 99 94 75 78 67 54 43 70 84 102 117
197 205 332 137 151 159 144 123 128 146 229 270 177 175 247 228 234 186 255 305 295 19 61 317 288 285 264 270 278 290 337 302 264 269 261 256 241 252 276 277 229 237 235 242 225 208 196 199 205 203 202 181 193 192 189 186 185 185 185 179 174 169 172 164 148 133 122 112 84 89 84 92 94 78 98 107 60 42 57 83 65 26 23 98 113 109
278 257 105 85 94 112 114 151 200 154 224 290 230 198 216 218 227 292 343 9 4 338 342 59 328 293 288 270 254 279 327 305 262 240 258 258 256 247 250 249 251 243 235 230 227 210 203 207 207 205 193 194 198 197 194 187 182 174 175 174 173 170 170 156 149 145 143 141 135 138 136 141 136 137 149 157 155 160 145 136 123 51 16 112 116 115
209 17 130 164 149 166 161 184 232 159 187 92 267 199 217 211 177 135 278 63 305 255 308 49 178 281 317 286 274 279 276 272 278 256 264 269 267 245 241 248 248 240 242 240 243 213 203 212 205 207 203 202 201 203 178 176 177 170 170 177 174 174 165 155 152 156 152 153 160 164 164 161 164 158 184 120 130 134 97 96 107 91 26 81 129 116
132 269 77 74 104 135 149 210 241 166 126 234 252 144 165 152 191 212 150 181 235 259 280 81 128 244 302 278 251 285 285 281 289 278 269 266 263 255 248 249 247 240 232 226 229 222 216 207 203 206 205 200 203 175 172 174 171 177 177 176 175 167 163 160 158 162 168 162 169 170 172 178 173 165 161 166 150 121 112 110 116 109 66 74 110 127
158 188 163 159 133 137 188 210 185 157 145 220 226 136 142 172 175 132 141 153 354 39 283 93 211 268 239 269 302 323 268 286 270 267 272 271 266 262 260 254 253 243 227 216 223 221 213 210 211 209 200 198 173 175 182 182 176 175 171 172 170 166 162 167 169 167 176 178 172 168 158 163 117 93 124 126 128 131 121 123 128 116 111 108 94 108
325 172 208 167 148 205 217 275 172 162 181 216 124 90 83 80 69 104 97 102 338 41 266 173 184 212 273 263 289 346 218 264 260 262 263 271 270 267 267 273 273 272 248 231 231 225 221 218 214 199 173 169 186 181 178 168 163 172 172 173 172 173 169 169 174 173 175 178 175 168 169 160 140 112 95 121 135 137 120 139 146 141 145 141 126 115
198 290 175 154 198 197 125 40 163 240 104 133 100 72 28 41 35 31 62 84 54 282 260 167 193 166 280 221 210 155 220 206 246 272 283 284 288 276 266 268 274 272 261 246 244 242 236 222 189 162 180 179 172 177 175 170 171 173 176 176 178 177 170 173 177 175 178 178 182 176 170 162 152 150 146 139 131 124 135 153 156 158 141 151 145 137
3 31 151 247 101 106 98 77 17 98 133 122 99 122 68 346 12 36 342 37 138 265 279 307 199 175 207 287 272 242 285 248 218 247 266 283 279 284 279 275 274 261 254 253 241 247 213 162 165 166 177 172 176 174 183 178 174 175 178 175 178 178 178 177 177 177 177 176 183 183 172 167 162 156 160 161 155 163 160 165 159 148 139 148 145 142
262 224 231 323 210 135 115 86 6 32 340 81 90 90 120 247 35 307 23 255 196 230 338 9 129 4 238 242 245 283 262 262 219 221 236 248 266 274 279 267 261 255 247 240 236 221 205 195 183 186 181 172 181 186 185 182 182 179 180 181 181 185 181 178 175 181 179 178 182 178 172 168 163 167 164 162 163 164 164 164 156 159 165 158 161 181
271 271 280 243 86 233 145 144 155 84 214 135 158 147 108 155 153 253 266 275 309 292 270 231 293 256 282 287 232 245 251 239 246 238 235 244 254 272 281 295 285 260 238 241 228 221 212 201 195 190 184 185 185 186 186 182 183 185 184 186 188 186 179 176 179 182 181 184 181 177 173 167 165 173 168 166 163 169 169 169 168 170 171 175 183 175
251 306 243 134 248 175 183 198 179 159 165 203 91 162 178 149 165 208 187 202 221 219 285 279 91 229 134 241 242 232 257 281 264 266 262 258 251 259 284 288 280 272 251 235 233 221 212 206 194 190 189 188 187 186 187 185 185 181 187 187 192 182 184 182 185 183 185 183 178 175 170 166 170 171 172 170 172 166 164 173 174 176 169 173 177 182
213 238 268 215 308 155 188 205 109 93 77 202 169 66 107 228 123 239 211 167 261 337 342 235 213 191 191 262 285 236 266 282 258 264 270 266 257 245 285 272 272 271 258 223 234 229 222 205 196 192 193 191 187 188 190 189 186 186 189 187 192 188 182 186 184 187 184 183 175 172 171 172 170 169 170 159 165 175 173 171 175 176 175 176 165 167
44 270 294 326 47 180 181 115 173 144 196 208 105 206 213 162 112 84 53 45 83 56 256 148 288 276 302 287 253 255 246 256 259 258 269 259 248 249 254 261 263 267 250 232 231 225 214 205 204 199 194 190 188 191 195 195 190 189 185 186 188 185 181 186 188 185 183 178 174 179 175 169 170 171 173 172 176 177 176 177 176 170 172 158 156 157
157 237 303 99 212 319 62 223 98 27 145 104 204 228 145 132 105 136 226 358 73 191 268 110 237 289 43 280 339 340 265 264 266 258 247 257 253 262 258 260 260 263 240 230 236 231 213 206 202 200 199 196 195 194 196 198 195 192 190 188 187 184 183 186 184 186 183 177 179 176 178 175 176 176 180 177 175 170 165 173 173 157 155 168 161 156
137 260 316 0 112 307 355 126 25 353 14 151 196 194 118 232 234 292 91 260 215 266 267 282 267 259 191 251 306 252 210 248 254 253 253 261 237 236 252 260 271 285 267 240 235 228 217 206 205 200 200 200 197 196 197 195 193 195 194 192 193 191 186 182 181 181 179 177 175 176 179 176 177 181 180 176 170 167 171 173 171 176 166 144 150 154
93 182 287 353 133 286 18 124 203 196 8 56 79 94 111 105 184 136 200 176 125 254 61 289 45 264 176 222 190 229 212 223 242 258 246 246 238 230 230 249 253 250 242 241 238 235 224 217 206 201 196 196 196 193 192 190 191 200 196 191 195 186 172 172 179 177 179 178 170 177 178 185 182 177 175 172 168 174 179 176 171 172 164 163 156 162
196 153 247 313 323 92 175 203 213 161 156 146 143 196 176 103 241 112 21 147 177 179 183 260 297 263 246 201 184 213 217 212 212 226 229 234 242 232 232 230 237 233 242 237 232 229 220 212 207 204 205 202 195 194 186 190 196 198 194 197 191 185 182 184 183 177 181 168 179 173 181 180 178 182 176 167 173 174 177 176 173 177 169 145 167 163
174 181 204 115 35 214 237 265 220 181 191 183 182 191 191 144 158 165 251 59 129 129 235 153 254 273 259 186 201 204 222 217 211 196 212 240 230 239 237 243 231 247 245 231 232 227 223 213 200 199 195 189 183 192 194 195 193 196 199 199 193 191 192 185 181 182 172 177 178 182 180 180 178 175 169 168 170 177 174 173 177 175 160 172 170 169
175 141 109 189 202 206 173 115 233 243 17 198 178 248 191 208 162 163 202 233 44 251 108 188 81 271 216 199 204 214 234 270 230 181 229 251 251 246 245 236 243 228 227 222 223 223 221 205 198 196 195 194 196 195 192 193 197 198 197 195 197 193 197 187 185 177 174 178 181 183 178 173 175 167 174 173 173 177 174 175 177 174 172 170 165 166
91 118 168 283 318 315 310 301 59 83 143 298 273 178 149 199 194 197 174 183 170 159 225 253 227 260 293 281 261 273 258 262 135 249 210 224 258 265 254 235 240 252 250 240 233 229 212 192 187 191 201 201 201 197 196 196 196 197 200 199 194 201 190 184 181 176 173 179 182 175 171 177 171 171 175 179 178 177 175 171 171 170 173 164 153 162
155 250 171 152 7 337 340 339 336 342 51 215 209 197 203 196 194 176 94 67 194 210 201 164 238 261 240 340 290 307 283 279 261 236 242 222 252 269 286 275 228 218 218 252 244 225 209 195 198 206 203 203 204 202 197 198 197 195 199 197 199 200 189 182 177 178 178 177 177 176 179 179 174 177 180 181 177 179 169 168 163 168 171 154 157 159
181 166 173 183 206 215 220 202 218 218 206 208 225 190 199 181 183 132 230 194 227 240 182 217 248 255 303 320 328 262 315 290 269 239 281 248 258 267 270 277 248 170 198 220 226 219 219 215 213 215 209 206 206 201 200 202 200 201 200 201 196 193 186 185 173 181 177 177 179 181 184 182 179 184 182 179 179 177 171 166 165 166 164 161 158 156
180 189 188 190 202 219 225 232 244 92 82 182 215 198 197 201 190 200 218 160 218 226 199 228 230 248 253 280 251 260 222 221 246 285 242 255 262 253 257 263 275 283 231 218 212 220 235 233 224 219 211 207 206 203 202 202 202 203 203 202 196 193 186 183 177 179 182 182 183 183 189 186 185 181 181 183 180 174 170 169 165 164 167 165 161 162
81 199 210 205 210 221 226 227 188 162 176 202 199 202 198 187 186 186 200 221 213 92 254 241 224 248 247 212 245 238 241 257 261 244 277 253 243 252 252 258 287 279 260 241 229 220 223 229 227 220 213 208 210 205 210 208 206 202 201 202 194 189 185 184 181 181 185 184 188 191 190 186 181 182 183 182 177 177 173 168 166 169 163 159 164 168
167 216 218 214 229 233 233 234 166 189 186 191 200 193 192 195 181 194 218 229 209 209 231 249 157 224 247 222 218 212 200 204 214 223 219 230 284 271 273 298 292 283 271 233 243 234 230 230 225 217 211 211 204 209 209 208 208 206 207 204 195 189 193 179 178 186 188 189 194 194 184 176 179 183 180 179 177 175 172 166 161 159 159 162 165 170
158 241 205 207 224 232 242 245 178 198 214 204 198 198 194 186 192 203 218 222 219 224 237 252 207 230 243 222 207 218 214 217 217 241 307 284 249 255 273 275 270 264 267 259 245 238 234 236 228 215 207 209 210 210 208 208 208 204 201 201 193 190 189 172 187 188 191 196 198 188 176 175 176 179 176 174 178 173 161 160 159 160 163 171 173 166
193 214 199 204 227 236 241 245 217 205 209 221 223 208 197 195 201 208 216 226 222 240 246 250 259 267 257 144 208 222 221 247 276 272 251 248 253 255 257 260 259 256 257 261 259 247 237 229 223 213 211 216 211 211 208 209 206 199 203 201 191 190 184 176 185 193 192 196 188 179 168 172 179 171 174 174 163 159 162 163 163 164 167 169 167 163
188 274 21 137 229 240 245 240 233 198 233 244 237 208 214 209 215 217 218 218 199 220 232 244 256 254 261 135 191 200 174 197 222 232 238 245 241 240 243 248 252 257 258 257 257 256 244 225 219 216 219 219 215 210 206 207 199 191 206 193 190 185 169 180 188 191 194 189 178 174 173 174 168 168 170 165 168 164 163 159 162 168 169 166 162 160
178 195 221 185 222 232 243 250 175 138 162 264 240 230 217 217 217 220 223 219 214 210 220 225 235 244 230 149 172 227 186 217 231 235 241 242 243 240 240 238 242 250 250 249 252 256 250 238 229 225 228 224 216 208 211 194 181 202 196 183 185 159 175 185 187 188 188 182 174 171 167 166 166 168 167 171 167 162 160 164 166 167 167 171 168 155
155 201 218 189 237 238 252 89 130 121 218 232 235 230 220 221 209 207 220 220 222 203 218 223 239 251 250 216 218 224 200 216 225 233 227 236 238 235 240 232 233 236 248 258 256 256 259 254 247 234 230 227 220 211 193 184 193 189 171 170 161 172 178 179 184 182 182 171 171 165 164 166 167 169 169 166 165 162 164 165 172 171 168 158 157 168
198 201 219 193 224 231 216 108 199 220 229 235 260 293 214 217 194 210 225 222 219 218 233 251 256 257 248 222 219 230 224 234 245 250 260 209 199 228 244 250 241 240 248 251 257 252 246 250 256 257 251 240 207 173 163 181 177 154 159 165 168 174 171 178 175 178 175 172 167 162 165 168 172 169 163 166 163 163 167 170 168 168 169 170 174 174
201 199 194 217 205 252 137 196 237 233 237 351 275 238 259 196 204 207 238 238 223 214 215 232 241 246 249 243 245 244 233 253 288 256 223 228 218 228 237 252 261 234 241 238 243 260 256 254 250 249 249 196 170 177 177 178 160 156 163 156 162 164 168 168 174 175 168 169 165 167 170 167 165 164 165 161 159 164 170 173 172 169 161 159 160 151
198 201 189 232 182 218 209 218 235 307 323 281 273 227 183 197 179 188 222 243 219 212 205 222 235 242 249 255 255 261 292 341 294 272 166 214 235 230 226 245 246 265 276 281 236 256 243 243 238 240 204 165 172 162 167 145 145 142 141 151 156 156 160 165 173 175 171 167 166 167 166 164 161 159 148 155 161 169 169 169 167 163 154 159 164 168
189 205 182 213 210 202 222 238 237 230 239 248 239 253 114 183 169 178 200 254 240 213 218 216 231 239 243 252 256 253 85 302 279 270 187 230 262 318 288 295 318 297 290 284 282 264 275 298 302 5 144 136 129 136 132 138 138 136 141 145 145 150 156 165 175 169 166 166 165 164 162 160 152 151 159 161 168 169 162 145 135 146 149 156 155 164
207 213 195 209 206 186 217 234 229 225 238 234 256 174 183 154 153 151 176 239 245 213 209 208 223 235 235 237 247 136 128 248 259 267 229 197 15 44 303 306 296 282 285 286 283 295 334 48 105 110 106 117 122 131 132 132 131 132 137 141 146 150 158 173 171 169 172 164 154 148 146 145 147 152 157 164 168 163 160 164 162 152 151 159 164 173
197 208 191 218 216 210 218 226 229 216 238 246 216 205 184 153 116 116 204 236 246 162 183 176 200 224 231 231 224 151 196 239 248 264 165 169 209 236 218 311 331 342 345 355 8 47 101 93 92 85 101 113 124 125 125 127 126 129 134 140 144 155 170 174 159 141 126 130 141 143 146 150 150 155 159 158 146 148 154 143 140 154 159 159 162 161
199 208 201 209 213 219 219 238 262 268 264 240 189 179 142 147 139 177 216 230 138 150 176 165 195 214 225 224 174 193 216 217 224 126 151 172 151 61 350 315 263 264 334 41 58 82 76 64 80 95 104 117 125 125 125 124 121 126 134 142 152 170 159 142 130 133 133 131 134 138 142 146 152 153 156 154 155 152 146 153 154 147 154 161 161 165
203 204 216 212 220 216 215 223 229 258 239 169 305 147 159 117 205 213 225 131 155 164 175 185 189 212 211 207 181 213 216 96 161 121 103 101 144 177 184 92 84 72 59 74 86 96 92 84 86 88 82 99 122 126 127 124 122 130 139 146 156 155 141 134 134 133 135 140 144 148 149 151 150 149 149 144 139 145 149 153 153 161 166 166 169 181
182 192 187 202 210 224 213 233 226 236 246 153 112 58 279 192 226 183 129 334 68 187 165 200 201 214 155 204 210 190 117 119 129 153 140 147 140 144 138 123 119 118 116 105 84 79 109 98 92 96 109 116 122 129 131 125 127 136 141 147 161 149 140 138 138 138 139 141 145 151 152 151 152 148 148 151 154 156 163 161 161 161 163 166 169 181
160 202 180 219 188 210 206 216 213 214 144 144 148 186 202 213 173 190 141 177 250 165 181 173 216 191 188 181 179 192 179 138 138 132 140 126 138 134 126 125 122 117 99 85 112 125 110 105 106 103 98 103 114 125 131 131 132 138 141 153 150 136 133 135 137 136 139 145 149 149 153 157 156 151 151 154 155 158 156 162 165 161 168 166 169 175
170 207 179 210 183 207 211 222 215 223 166 188 167 199 201 181 122 172 131 144 161 227 185 173 195 185 187 166 156 164 161 213 176 177 152 181 150 152 145 149 146 141 135 126 120 115 109 120 119 109 90 80 86 85 100 125 132 135 135 149 137 139 138 138 137 140 145 148 151 153 149 145 147 150 154 155 156 156 153 150 150 152 158 159 171 177
331 270 2 118 232 55 354 115 105 63 235 225 232 214 173 151 162 131 154 143 233 175 169 178 170 165 169 164 133 189 194 171 151 156 131 138 149 129 120 102 91 92 99 101 98 101 109 104 99 100 97 70 58 64 69 80 115 126 130 122 123 126 132 136 139 143 146 140 137 137 135 137 138 141 146 150 157 157 157 158 165 163 160 165 177 183
271 359 313 206 214 172 238 171 177 216 220 203 199 263 273 348 165 156 161 230 150 150 170 272 161 161 164 162 161 170 168 166 150 148 144 136 145 154 134 134 108 104 117 114 122 122 113 112 103 98 93 82 47 58 52 64 54 72 97 104 113 117 120 121 119 114 108 114 111 117 133 137 144 137 130 136 122 118 129 134 146 143 149 162 168 167
288 153 29 318 312 218 286 97 250 281 257 229 170 180 215 230 58 64 54 57 103 101 95 140 112 114 133 163 175 146 156 161 154 157 156 162 159 152 151 137 130 101 85 103 115 106 100 101 109 105 96 83 63 63 64 60 54 42 53 63 86 110 111 112 120 126 127 125 129 129 132 127 123 124 113 99 106 112 103 99 130 146 159 173 173 174
272 78 201 197 196 301 331 255 289 315 290 249 222 227 227 175 149 59 47 91 114 117 111 103 114 155 165 167 149 141 139 177 168 163 156 157 149 152 155 143 125 126 123 120 115 110 112 118 106 104 98 91 81 82 76 67 55 36 41 41 73 118 112 111 108 108 107 109 107 99 90 104 106 115 115 104 79 53 87 132 131 132 94 51 164 173
97 212 228 92 9 245 219 237 126 157 271 280 264 216 217 228 125 124 113 124 136 138 151 132 96 114 138 159 159 157 152 163 169 162 162 164 161 149 138 129 123 118 108 96 106 107 106 106 113 110 101 87 84 77 73 68 55 39 17 18 27 111 114 115 106 100 96 98 103 106 103 99 98 106 115 118 115 103 65 74 104 120 136 167 128 169
203 204 158 183 193 240 231 217 193 195 197 205 206 192 178 181 160 164 185 185 193 173 160 141 131 124 128 134 169 156 156 157 168 157 147 151 147 144 138 139 136 131 123 127 112 107 107 110 108 107 95 85 83 76 78 71 40 36 19 19 12 105 118 116 105 102 102 102 106 116 117 115 106 103 109 117 120 112 108 81 56 74 87 109 117 117